Temperature
33 33 31 32 32 33 33 32 32 33 34 33 32 31 31 30 30 29 28 27 26 25 23 23 22 21 20 20 19 19 19 19 19 18 18 18 18 18 18 18 18 18 18 18
33 32 33 33 33 33 33 33 32 33 34 33 31 31 31 31 30 29 28 27 26 25 24 23 22 21 20 20 19 19 19 18 18 18 18 18 18 18 18 18 17 17 17 17
32 33 34 34 34 33 33 33 32 32 33 33 32 30 30 30 30 29 28 27 26 25 24 23 22 22 21 20 19 19 19 18 18 18 18 18 18 18 18 18 17 17 17 17
33 34 34 34 34 33 32 33 33 33 32 31 31 29 29 29 29 30 29 28 27 26 24 23 22 22 21 20 19 19 19 18 18 18 18 18 18 17 18 17 17 17 17 17
33 34 34 33 34 34 33 34 34 33 31 30 30 29 28 29 29 29 29 28 27 26 25 24 23 22 21 20 20 19 19 18 18 18 18 18 18 17 17 17 17 17 17 17
33 34 34 34 35 34 34 34 33 32 30 28 29 29 29 30 30 30 29 28 27 26 25 24 23 22 21 21 20 19 19 18 18 18 17 17 17 17 17 17 17 17 17 17
32 33 34 35 34 34 34 32 30 29 28 28 30 30 29 31 31 31 30 28 27 26 25 24 23 22 22 21 20 19 19 18 18 18 17 17 17 17 17 17 17 17 17 17
32 32 33 34 34 33 33 32 30 29 28 28 30 29 29 31 31 31 30 28 27 27 26 25 24 23 22 21 20 19 19 18 18 18 17 17 17 17 17 17 17 17 17 17
32 31 34 34 35 34 33 32 33 31 29 28 29 29 29 30 31 30 29 28 27 27 26 25 24 23 22 21 20 19 19 18 18 18 17 17 17 17 17 17 17 16 16 16
32 31 33 34 34 34 34 33 32 31 29 28 28 28 28 29 29 29 29 28 27 27 26 25 24 23 22 21 20 20 19 18 18 18 17 17 17 17 17 17 16 16 16 16
33 31 31 33 32 32 32 32 32 31 31 29 28 28 30 30 30 29 29 28 27 27 26 25 24 23 22 21 20 20 19 19 18 18 17 17 17 17 17 16 16 16 16 16
32 31 30 32 33 33 32 32 32 31 30 30 29 28 30 30 30 29 28 28 27 26 25 25 24 23 22 21 20 20 19 19 18 18 17 17 17 17 16 16 16 16 16 16
32 31 29 30 31 32 32 32 32 32 31 30 29 28 30 30 29 29 28 27 27 26 25 24 23 22 22 21 20 20 19 19 18 18 17 17 17 17 16 16 16 16 16 16
31 31 30 29 30 31 31 32 32 32 30 30 29 29 29 28 29 28 28 27 26 25 25 24 23 22 21 21 20 20 19 19 18 18 17 17 17 16 16 16 16 15 15 15
32 30 30 31 31 32 31 31 31 31 31 30 29 29 29 28 28 28 27 26 26 25 24 23 22 21 21 20 20 19 19 19 18 18 17 17 16 16 16 16 16 15 15 15
31 29 29 30 31 31 30 31 31 31 31 31 30 29 29 29 28 27 27 26 25 25 24 23 22 21 20 20 19 19 19 18 18 18 17 17 16 16 16 16 15 15 15 14
30 29 28 28 30 30 29 30 31 31 31 31 29 29 29 28 28 27 26 26 25 24 24 23 22 21 20 20 19 18 18 18 17 17 17 16 16 16 15 15 15 15 14 14
29 28 28 28 28 27 29 31 31 30 30 31 30 29 29 28 28 27 26 25 24 24 23 22 22 21 20 19 19 18 18 18 17 17 16 16 16 15 15 15 15 14 14 14
30 28 28 28 27 28 29 30 30 29 29 29 29 29 29 28 28 26 25 25 24 23 22 22 21 20 20 19 18 18 18 17 17 16 16 16 15 15 15 15 14 14 14 14
29 28 27 27 26 26 28 30 30 30 28 28 28 28 28 27 26 25 24 23 23 22 22 21 20 20 19 18 18 17 17 17 16 16 15 15 15 15 15 14 14 14 14 14
27 27 27 26 26 27 28 29 29 27 26 27 27 27 27 26 25 24 24 23 22 21 21 20 20 19 18 18 17 17 16 16 16 15 15 15 15 15 14 14 14 14 14 14
27 27 26 26 25 26 28 28 27 26 26 26 26 26 26 25 24 24 23 22 21 20 20 19 19 18 18 17 17 16 16 16 15 15 15 15 14 14 14 14 14 14 14 14
28 28 27 26 26 26 26 26 26 25 25 25 25 25 24 24 24 23 22 21 20 20 19 18 18 18 17 17 17 16 16 15 15 15 14 14 14 14 14 14 14 14 14 13
28 28 27 26 26 26 25 25 25 25 24 24 24 24 24 23 23 22 21 20 20 19 19 18 17 17 17 16 16 16 15 15 15 15 14 14 14 14 14 14 14 13 13 13
26 26 26 25 26 25 25 25 24 24 24 24 23 23 23 23 22 21 20 20 19 18 18 17 17 17 16 16 16 15 15 15 15 14 14 14 14 14 14 14 14 13 13 13
25 25 25 25 25 25 24 24 23 23 23 23 22 22 22 22 21 20 20 19 18 18 17 17 17 16 16 15 15 15 15 15 15 14 14 14 14 14 14 14 13 13 13 13
Wind_Speed
11 10 6 5 7 7 8 6 4 1 1 3 1 3 9 9 8 9 10 9 9 9 9 7 7 6 6 5 3 3 2 2 1 1 2 1 2 1 1 1 2 2 2 2
10 10 8 6 7 8 9 6 4 1 1 2 2 4 8 10 9 9 10 9 9 10 9 7 6 6 6 5 4 3 2 1 1 1 0 0 1 1 1 2 2 2 2 2
11 6 5 6 9 8 9 6 5 5 5 6 4 4 7 9 9 9 10 10 9 10 10 9 7 6 6 6 5 3 3 2 1 1 1 1 0 1 1 1 2 1 1 2
11 8 7 8 8 7 7 5 7 7 7 6 5 4 4 8 9 11 11 10 10 9 10 10 8 6 6 6 6 5 4 3 2 1 1 1 1 1 1 1 1 1 1 2
9 8 10 9 7 7 8 9 9 10 8 7 5 2 3 9 9 10 11 10 10 9 9 9 9 8 7 7 7 6 5 3 2 2 1 2 2 1 1 1 1 1 1 1
12 11 10 8 7 7 9 11 11 8 5 6 5 4 3 5 7 10 11 11 10 10 10 9 8 8 7 7 7 7 6 4 3 2 1 1 2 3 4 3 2 1 1 1
13 13 10 7 8 7 8 8 6 6 3 4 5 2 2 6 7 8 11 11 11 10 10 10 9 9 8 7 7 7 6 4 3 2 1 1 1 2 2 2 2 2 1 1
11 9 8 7 8 7 8 8 7 7 6 6 4 2 5 6 9 10 11 11 11 11 11 10 10 9 8 8 7 7 6 4 3 2 2 0 1 1 1 2 2 2 2 2
7 7 8 8 8 8 8 9 9 8 7 7 2 4 5 6 8 10 11 10 9 10 10 9 9 9 8 8 8 7 6 5 4 3 2 1 1 1 2 2 2 2 2 1
9 9 9 7 8 8 8 9 7 6 5 5 3 2 3 6 6 7 9 8 8 10 10 9 8 8 8 8 8 7 6 5 4 3 1 2 1 1 0 2 2 2 3 2
9 9 9 7 6 7 7 8 7 7 7 7 4 1 3 6 6 6 8 9 8 9 9 9 8 7 7 8 8 6 6 5 5 3 2 1 1 1 1 1 2 2 2 2
7 8 9 10 5 4 8 9 9 8 7 6 4 1 2 4 5 5 7 9 8 8 8 9 9 8 7 7 6 5 5 5 5 4 3 2 1 1 1 1 1 1 1 1
5 7 9 9 5 6 8 9 10 11 9 7 5 1 3 4 4 5 6 7 8 8 7 8 8 8 7 6 5 4 4 4 4 4 4 2 2 1 0 1 1 1 1 2
5 10 11 10 7 6 7 9 10 10 7 7 5 0 2 2 3 5 5 5 6 7 7 7 7 7 6 6 5 4 4 3 3 4 3 3 2 1 1 0 1 1 1 2
7 10 11 13 11 10 9 10 10 10 8 8 4 3 0 1 2 4 6 5 5 6 6 6 5 6 6 5 4 4 4 4 3 3 2 2 2 1 0 1 0 1 1 1
7 8 10 12 12 12 11 11 10 10 7 7 3 2 2 0 1 3 5 5 5 5 5 6 6 6 6 5 4 4 4 3 3 3 2 2 2 1 0 0 0 0 1 2
7 7 9 12 11 11 11 8 9 7 5 6 4 1 1 0 1 2 4 4 4 5 5 5 6 7 6 6 5 3 3 3 3 2 1 1 1 1 1 1 1 1 1 1
7 7 7 10 9 12 7 3 4 5 5 5 3 2 2 1 1 3 4 4 4 4 4 4 5 6 6 6 6 4 3 3 2 2 1 1 1 1 1 1 1 0 1 1
6 5 7 9 11 11 8 3 4 5 4 4 4 4 3 2 1 3 5 5 5 4 4 4 5 5 4 4 5 4 3 3 2 2 1 1 1 1 1 1 1 1 1 1
8 7 8 9 10 11 5 2 4 5 3 4 5 5 5 4 3 1 5 6 5 5 5 5 5 5 4 3 4 3 2 2 2 1 1 1 1 1 1 1 1 1 1 1
9 8 10 11 11 7 2 3 4 4 1 4 5 6 4 3 2 2 5 5 5 5 6 6 5 4 4 4 4 3 2 1 1 2 2 1 1 1 1 1 1 1 1 2
9 9 10 9 10 5 5 3 2 4 3 4 5 5 4 3 4 5 6 6 6 6 5 5 5 4 4 4 3 3 2 2 2 2 1 1 0 2 1 1 1 1 2 2
8 6 5 4 3 2 4 4 5 5 5 5 5 5 3 3 3 4 5 5 5 5 5 4 5 5 4 4 3 2 2 2 1 1 1 0 0 1 1 1 2 2 2 2
6 4 4 3 3 2 2 3 4 4 4 4 5 4 3 2 3 4 5 4 4 4 5 4 4 4 4 3 2 2 2 2 1 0 1 1 2 2 2 1 2 1 1 2
5 3 5 5 3 2 2 1 2 3 4 4 4 4 2 1 2 4 4 4 4 3 3 4 3 3 3 3 3 2 2 1 1 1 2 3 3 2 2 2 2 1 0 0
5 5 6 4 1 2 1 3 3 2 2 2 2 3 2 1 2 3 3 4 4 4 3 3 3 3 3 3 3 2 1 1 1 2 3 3 3 2 3 2 1 1 2 3
Wind_Direction
244 245 246 260 275 283 293 302 301 350 221 238 167 158 157 159 171 157 152 153 152 146 139 137 137 134 127 120 120 112 103 85 41 21 21 2 7 355 25 70 55 14 342 357
246 248 248 239 263 275 279 290 305 331 322 280 219 217 180 169 170 165 160 161 157 151 145 147 152 147 142 135 127 123 124 121 115 96 55 317 327 314 50 38 63 18 346 338
249 251 246 255 260 268 284 305 309 301 294 263 250 231 188 164 163 164 164 163 163 158 155 155 159 155 151 147 142 124 112 115 93 72 65 12 23 325 18 38 57 12 324 346
256 256 260 266 273 286 296 313 298 288 281 272 246 256 192 176 178 169 166 163 161 159 158 160 163 161 156 150 142 120 111 108 100 88 28 337 35 11 7 22 57 14 351 1
263 260 261 267 280 295 294 299 291 287 287 290 294 291 169 170 174 167 163 161 157 159 158 159 161 161 157 153 145 133 123 119 106 83 39 349 10 343 5 32 58 46 35 15
265 265 262 266 271 273 282 286 281 290 292 285 274 264 183 154 157 158 154 154 155 156 156 156 154 152 152 148 139 135 128 127 127 111 62 34 353 348 3 0 0 349 54 56
251 251 251 257 267 267 274 285 294 299 302 273 255 254 93 102 119 133 144 151 151 151 150 151 150 147 146 140 134 124 121 124 123 118 84 37 323 312 336 342 335 337 10 53
247 242 237 245 257 274 278 283 288 301 303 298 257 144 107 99 107 121 132 141 146 149 145 147 148 149 148 142 135 129 132 137 134 124 124 92 294 308 359 357 342 3 10 36
271 267 248 235 246 259 272 286 290 293 286 286 270 125 120 113 115 118 125 134 142 140 138 143 144 143 141 141 137 135 136 140 139 135 142 129 53 33 13 347 358 12 357 2
263 282 270 254 247 235 252 282 295 295 295 284 309 32 139 154 130 122 124 128 139 139 140 142 139 135 135 136 132 134 137 141 132 126 137 136 128 115 55 19 22 11 357 0
264 273 275 258 250 274 268 264 281 295 302 305 312 352 114 141 140 133 131 130 132 135 137 135 131 132 135 133 132 135 139 141 140 133 120 99 107 124 128 65 38 20 11 11
253 265 274 270 262 269 270 275 276 279 280 288 294 75 80 118 122 123 135 134 130 129 136 138 138 135 136 133 131 136 145 146 146 140 135 134 131 101 53 57 61 46 10 359
274 261 261 258 240 246 253 264 281 287 290 291 291 182 114 95 117 131 129 132 135 134 141 140 136 134 135 132 130 138 148 146 144 142 138 136 137 135 54 31 33 17 9 13
256 263 272 275 275 263 266 271 276 282 288 291 302 189 137 97 120 118 125 140 141 136 131 130 133 133 128 126 127 133 124 124 127 129 138 145 151 153 151 66 39 7 18 35
260 263 275 283 287 278 276 274 274 271 276 283 303 300 31 152 156 144 150 158 147 140 134 127 133 124 122 119 124 123 115 105 102 106 111 117 129 158 169 100 60 19 9 356
251 273 283 279 278 280 277 277 272 274 281 284 291 311 358 224 134 135 145 148 146 155 151 144 144 131 128 125 127 120 114 117 109 96 85 84 85 85 89 111 237 53 16 357
247 256 271 274 270 276 263 269 281 288 294 297 292 321 15 200 152 141 142 166 165 160 150 147 144 143 138 135 122 109 109 115 114 108 99 76 65 49 17 316 23 24 344 339
261 265 263 268 277 266 269 282 286 291 298 309 323 14 348 309 211 133 142 144 141 141 136 134 137 141 143 138 133 131 129 122 124 123 100 75 55 44 19 345 352 339 323 336
252 252 262 265 262 259 258 265 277 270 283 342 346 350 338 338 330 103 99 107 120 127 124 123 125 126 121 126 130 131 131 133 121 106 93 60 15 349 350 352 3 357 329 309
234 232 247 262 269 265 264 315 303 261 243 10 4 355 348 352 314 51 87 89 105 119 121 117 119 122 121 118 117 120 114 129 138 123 104 61 359 355 352 349 358 346 307 290
216 228 239 253 261 259 309 334 303 266 311 5 359 348 350 359 345 106 111 111 114 113 112 110 109 113 110 109 111 113 103 104 113 105 100 73 26 334 344 20 336 326 330 310
228 224 230 243 254 258 10 350 20 38 42 21 8 2 13 24 79 107 114 111 112 114 119 126 117 113 112 115 127 128 115 89 89 97 95 92 3 317 6 13 319 310 299 291
242 246 243 237 225 96 24 27 38 37 31 18 10 14 34 47 85 109 116 115 125 132 129 134 136 132 125 122 133 136 115 101 89 89 77 45 334 331 299 263 273 277 282 294
232 236 244 242 199 119 61 46 33 33 23 18 13 9 27 58 86 105 115 123 136 139 138 143 144 140 134 133 130 120 106 104 110 76 304 264 240 242 257 267 266 268 300 318
294 251 248 242 221 218 239 48 46 19 21 25 10 345 356 69 106 116 127 136 137 132 138 142 144 150 150 132 118 131 133 145 193 229 246 251 243 237 234 245 277 266 335 3
287 280 251 254 221 225 135 59 38 25 11 5 341 337 358 64 125 123 131 135 136 142 147 163 166 167 167 157 143 141 162 204 236 246 254 257 254 249 246 224 224 171 184 174
Height
1482 1484 1487 1485 1482 1480 1479 1481 1483 1478 1473 1476 1481 1484 1485 1488 1491 1495 1500 1505 1508 1512 1515 1517 1519 1520 1521 1521 1521 1521 1520 1520 1521 1521 1520 1520 1520 1520 1520 1519 1519 1518 1518 1519
1482 1485 1478 1477 1476 1477 1478 1481 1482 1476 1472 1476 1481 1484 1480 1485 1489 1493 1498 1502 1506 1510 1514 1516 1518 1519 1520 1520 1520 1519 1519 1519 1520 1520 1520 1521 1521 1520 1520 1519 1518 1518 1518 1518
1482 1478 1473 1474 1475 1477 1477 1479 1480 1480 1474 1473 1479 1486 1482 1483 1487 1492 1496 1500 1504 1508 1512 1515 1517 1518 1519 1519 1519 1519 1518 1518 1519 1520 1520 1521 1520 1520 1520 1519 1518 1518 1517 1517
1475 1471 1472 1473 1474 1475 1481 1472 1472 1474 1481 1485 1483 1500 1488 1485 1487 1489 1493 1498 1502 1506 1509 1513 1515 1517 1518 1518 1519 1518 1518 1519 1519 1520 1520 1520 1520 1519 1519 1519 1518 1517 1517 1516
1475 1471 1473 1474 1472 1472 1475 1468 1470 1472 1480 1487 1486 1498 1496 1484 1488 1488 1490 1495 1499 1504 1507 1511 1513 1515 1517 1518 1518 1518 1518 1519 1519 1519 1519 1520 1520 1519 1519 1519 1518 1517 1516 1516
1472 1469 1468 1469 1467 1468 1468 1469 1470 1473 1483 1503 1490 1496 1497 1482 1482 1483 1487 1492 1497 1502 1506 1509 1512 1514 1516 1517 1518 1518 1518 1518 1519 1519 1519 1519 1519 1519 1519 1518 1517 1517 1516 1516
1477 1470 1466 1467 1470 1468 1469 1480 1495 1501 1506 1508 1484 1490 1492 1475 1475 1479 1485 1491 1495 1500 1504 1508 1510 1513 1514 1516 1517 1518 1517 1518 1518 1518 1518 1518 1519 1518 1518 1518 1517 1517 1516 1516
1483 1482 1468 1466 1469 1474 1472 1478 1499 1513 1515 1504 1486 1493 1487 1475 1476 1479 1484 1489 1494 1498 1503 1506 1509 1511 1513 1515 1516 1517 1517 1517 1518 1518 1518 1518 1518 1518 1517 1517 1517 1516 1516 1515
1479 1481 1465 1463 1464 1467 1474 1476 1473 1486 1496 1505 1496 1490 1483 1477 1478 1481 1485 1489 1493 1497 1501 1505 1508 1510 1512 1514 1516 1516 1517 1517 1517 1517 1517 1517 1517 1517 1517 1516 1516 1516 1515 1515
1469 1481 1469 1462 1463 1464 1467 1469 1475 1487 1505 1512 1502 1496 1494 1486 1483 1483 1485 1490 1493 1496 1500 1504 1507 1510 1512 1513 1515 1516 1516 1516 1517 1517 1517 1517 1516 1516 1516 1516 1515 1515 1514 1514
1467 1480 1476 1468 1471 1474 1471 1473 1475 1479 1483 1499 1510 1505 1478 1480 1481 1483 1486 1490 1493 1496 1500 1503 1506 1508 1511 1513 1514 1515 1516 1516 1516 1516 1516 1516 1516 1516 1516 1515 1515 1514 1513 1513
1468 1475 1483 1474 1465 1465 1469 1471 1474 1487 1489 1487 1497 1503 1476 1477 1480 1484 1487 1490 1494 1497 1500 1502 1505 1507 1510 1512 1513 1514 1515 1515 1515 1515 1515 1515 1515 1515 1515 1514 1514 1513 1512 1512
1470 1478 1491 1486 1479 1472 1472 1469 1469 1470 1476 1486 1497 1500 1477 1479 1482 1485 1488 1491 1494 1497 1499 1501 1504 1507 1509 1511 1512 1514 1515 1515 1515 1515 1514 1514 1514 1514 1513 1513 1513 1512 1511 1511
1472 1475 1484 1493 1486 1477 1476 1472 1469 1472 1483 1488 1488 1488 1482 1483 1484 1486 1489 1492 1495 1498 1500 1502 1504 1506 1508 1510 1511 1513 1514 1514 1514 1514 1514 1513 1513 1513 1512 1512 1511 1511 1510 1510
1469 1477 1476 1473 1469 1469 1472 1472 1471 1473 1475 1482 1483 1483 1482 1483 1484 1486 1490 1492 1495 1498 1500 1502 1503 1505 1508 1510 1511 1511 1512 1513 1513 1513 1513 1513 1512 1512 1511 1511 1510 1510 1509 1509
1471 1478 1479 1478 1472 1470 1474 1471 1470 1470 1470 1473 1477 1483 1479 1481 1483 1486 1488 1491 1494 1498 1500 1502 1503 1504 1507 1508 1510 1510 1511 1512 1512 1512 1512 1512 1512 1511 1511 1510 1509 1509 1508 1508
1471 1478 1486 1487 1476 1476 1483 1473 1470 1471 1469 1471 1480 1482 1479 1482 1484 1486 1489 1491 1494 1496 1499 1501 1503 1504 1506 1507 1508 1509 1509 1511 1512 1512 1512 1511 1511 1511 1510 1509 1508 1508 1507 1507
1474 1478 1482 1485 1487 1501 1479 1466 1468 1470 1471 1471 1473 1476 1479 1482 1483 1486 1488 1491 1493 1496 1498 1500 1502 1504 1505 1506 1507 1508 1509 1510 1511 1511 1511 1510 1510 1509 1509 1508 1507 1507 1506 1506
1470 1478 1484 1486 1492 1487 1475 1468 1468 1473 1476 1474 1475 1477 1479 1481 1483 1486 1488 1491 1493 1496 1498 1499 1502 1503 1504 1506 1506 1507 1508 1509 1509 1509 1509 1509 1509 1508 1507 1507 1506 1506 1505 1505
1470 1474 1483 1486 1495 1498 1480 1468 1468 1471 1481 1477 1478 1479 1481 1482 1486 1489 1489 1491 1493 1496 1498 1499 1501 1503 1504 1505 1506 1506 1506 1507 1507 1508 1508 1508 1507 1507 1506 1506 1505 1504 1504 1503
1477 1480 1484 1489 1492 1483 1472 1470 1470 1484 1488 1480 1480 1481 1482 1484 1487 1489 1490 1492 1494 1496 1498 1499 1501 1503 1504 1504 1505 1505 1505 1506 1506 1506 1506 1506 1506 1505 1505 1504 1504 1503 1503 1502
1473 1479 1483 1486 1493 1489 1475 1473 1478 1484 1481 1481 1482 1483 1484 1485 1486 1488 1490 1492 1494 1496 1498 1500 1501 1503 1503 1503 1504 1504 1505 1505 1504 1504 1505 1505 1504 1504 1504 1503 1503 1502 1502 1501
1467 1470 1472 1478 1483 1480 1478 1479 1481 1481 1482 1483 1483 1484 1485 1486 1488 1489 1491 1493 1495 1496 1498 1500 1500 1501 1502 1502 1503 1504 1504 1504 1503 1503 1503 1503 1503 1503 1502 1502 1501 1501 1500 1500
1465 1466 1469 1474 1475 1477 1479 1481 1482 1483 1484 1485 1485 1486 1486 1487 1488 1490 1491 1493 1495 1496 1497 1499 1499 1500 1501 1501 1502 1503 1503 1502 1502 1502 1502 1502 1502 1501 1501 1501 1500 1500 1499 1498
1468 1468 1471 1474 1475 1477 1479 1481 1483 1484 1485 1485 1486 1486 1487 1487 1488 1490 1491 1493 1494 1496 1497 1498 1498 1499 1500 1501 1501 1501 1502 1501 1501 1501 1501 1501 1501 1500 1500 1499 1499 1498 1497 1497
1470 1472 1474 1474 1475 1476 1479 1481 1483 1485 1485 1486 1487 1487 1487 1487 1488 1489 1491 1492 1493 1495 1496 1497 1498 1498 1499 1499 1499 1500 1499 1500 1499 1499 1500 1500 1499 1499 1498 1497 1497 1496 1496 1495